Location: Mentone
(34.5413°N, 85.5351°W)
Time: 20:24:03
(UTC-05:00)

Cosmos 2150 Rocket - Visible Passes

Search period start: 24 May 2016 00:00
Search period end: 03 June 2016 00:00
Orbit: 749 x 809 km, 74.0° (Epoch: 24 May)

Date Brightness Start Highest point End Pass type
(mag) Time Alt. Az. Time Alt. Az. Time Alt. Az.
24 May 6.4 03:26:49 10° SE 03:30:17 18° E 03:33:47 10° NE visible
24 May 4.5 05:07:08 10° SW 05:12:07 44° WNW 05:17:13 10° N visible
25 May 6.8 02:56:36 10° E 02:56:47 10° E 02:56:59 10° E visible
25 May 4.0 04:33:07 10° SSW 04:38:17 74° WNW 04:43:38 10° NNE visible
26 May 4.3 04:00:25 16° S 04:04:32 67° ESE 04:09:50 10° NNE visible
27 May 5.1 03:27:39 19° SSE 03:30:51 39° E 03:35:48 10° NNE visible
28 May 5.9 02:54:51 17° SE 02:57:16 24° E 03:01:27 10° NE visible
28 May 4.9 04:35:22 14° SW 04:39:17 34° WNW 04:44:10 10° N visible
29 May 6.3 02:22:00 12° ESE 02:23:44 14° E 02:26:24 10° ENE visible
29 May 4.2 04:02:30 25° SW 04:05:25 56° WNW 04:10:42 10° N visible
30 May 4.0 03:29:36 40° SSW 03:31:36 87° ESE 03:37:00 10° NNE visible
31 May 4.5 02:56:40 43° SE 02:57:54 52° ESE 03:03:06 10° NNE visible
31 May 5.8 04:37:10 10° W 04:40:31 17° WNW 04:43:57 10° NNW visible
01 Jun 5.3 02:23:41 30° ESE 02:24:15 31° E 02:28:56 10° NE visible
01 Jun 5.3 04:04:11 20° WSW 04:06:29 27° WNW 04:11:01 10° N visible
02 Jun 6.0 01:50:40 19° E 01:50:42 19° E 01:54:20 10° NE visible
02 Jun 4.6 03:31:11 36° WSW 03:32:33 43° WNW 03:37:42 10° N visible
